STARLINK-43 (44257 NORAD) Tracking and Keplerian Element Data

This shows tracking and keplerian element data for the satellite.

Feedback or suggestion? Click here.




ElementValue
Catalog44257
NameSTARLINK-43
Epoch Orbit15078
Epoch Day26.97853641
Epoch Year2022
RAAN233.9804
Inclination52.9787
Eccentricity0.0051498
Argument of Perigee182.5337
Mean Anonmoly329.9097
Mean Motion16.52216489
Decay Rate0.77821569
L11 44257U 19029Y 22026.97853641 .77821569 11913-4 31058-3 0 9992
L22 44257 52.9787 233.9804 0051498 182.5337 329.9097 16.52216489150781



Live tracking and technical data element details for STARLINK-43 (NORAD 44257). STARLINK-43 can be tracked NOW for your location showing map with azimuth and elevation plus other details from your city location.







IsCatalogInMostPopularTable: catalog: 44257, numindb: 290
Update: records affected: 1



GetName: 44257 STARLINK-43

Hit Count: updated at: Sat, 17 May 2025 09:38:20 GMT